Location: Fauquembergues
(50.6005°N, 2.0987°E)
Time: 20:36:57
(UTC+00:00)

Abrixas rocket - Pass Details

Date: 14 July 2020
Orbit: 338 x 346 km, 48.4° (Epoch: 13 August)

Event Time Altitude Azimuth Distance (km) Brightness Sun altitude
Exits shadow 01:34:26 34° 241° (WSW) 583 2.5 -14.7°
Maximum altitude 01:35:19 49° 188° (S) 444 1.9 -14.6°
Drops below altitude 10° 01:38:05 10° 112° (ESE) 1,279 4.7 -14.4°
Sets 01:40:07 0° 106° (ESE) 2,117 5.9 -14.3°
